This demonstration page uses our WeatherBlox Daily Observations layout. Learn more.

Left ArrowRight Arrow

39.01783, -85.05884

Hourly Observations for July 25, 2020

Temp ( °F °C ) Dew Point ( °F °C ) Humidity (%) Winds ( mph kmh ) Pressure ( in mb ) Visibility ( mi km ) Precip ( " mm )
12:52 am 00:52 Clear 73 22.8 65 18.3 76 76 Calm 30.09 1019 10 16 0.00 0.00
1:52 am 01:52 Clear 74 23.3 65 18.3 74 74 Calm 30.09 1019 10 16 0.00 0.00
2:52 am 02:52 Clear 73 22.8 65 18.3 76 76 Calm 30.08 1019 10 16 0.00 0.00
3:52 am 03:52 Mostly Clear 72 22.2 65 18.3 79 79 Calm 30.08 1019 10 16 0.00 0.00
4:52 am 04:52 Mostly Cloudy 70 21.1 64 17.8 82 82 Calm 30.08 1019 10 16 0.00 0.00
5:52 am 05:52 Mostly Cloudy 71 21.7 66 18.9 84 84 N 3 6 30.09 1019 10 16 0.00 0.00
6:52 am 06:52 Partly Cloudy 67 19.4 64 17.8 91 91 Calm 30.11 1020 10 16 0.00 0.00
7:52 am 07:52 Sunny 72 22.2 66 18.9 82 82 Calm 30.12 1020 10 16 0.00 0.00
8:52 am 08:52 Sunny 76 24.4 66 18.9 72 72 Calm 30.13 1020 10 16 0.00 0.00
9:52 am 09:52 Sunny 80 26.7 65 18.3 60 60 S 3 6 30.13 1020 10 16 0.00 0.00
10:52 am 10:52 Mostly Sunny 82 27.8 66 18.9 58 58 VRB 3 6 30.13 1020 10 16 0.00 0.00
11:52 am 11:52 Partly Cloudy 83 28.3 63 17.2 51 51 Calm 30.13 1020 10 16 0.00 0.00
12:52 pm 12:52 Partly Cloudy 87 30.6 61 16.1 42 42 WNW 8 13 30.12 1020 10 16 0.00 0.00
1:52 pm 13:52 Mostly Sunny 87 30.6 61 16.1 42 42 WNW 6 9 30.11 1020 10 16 0.00 0.00
2:52 pm 14:52 Mostly Sunny 87 30.6 66 18.9 50 50 SW 7 11 30.09 1019 10 16 0.00 0.00
3:52 pm 15:52 Partly Cloudy 86 30 66 18.9 51 51 SSW 6 9 30.07 1018 10 16 0.00 0.00
4:52 pm 16:52 Mostly Sunny 88 31.1 63 17.2 43 43 VRB 5 7 30.06 1018 10 16 0.00 0.00
5:52 pm 17:52 Mostly Sunny 88 31.1 64 17.8 45 45 WSW 6 9 30.05 1018 10 16 0.00 0.00
6:52 pm 18:52 Mostly Sunny 87 30.6 64 17.8 46 46 W 8 13 30.05 1018 10 16 0.00 0.00
7:52 pm 19:52 Mostly Sunny 84 28.9 66 18.9 55 55 W 6 9 30.05 1018 10 16 0.00 0.00
8:52 pm 20:52 Mostly Sunny 80 26.7 66 18.9 62 62 W 6 9 30.06 1018 10 16 0.00 0.00
9:52 pm 21:52 Mostly Clear 78 25.6 66 18.9 67 67 VRB 3 6 30.07 1018 10 16 0.00 0.00
10:52 pm 22:52 Clear 77 25 65 18.3 66 66 Calm 30.08 1019 10 16 0.00 0.00
11:52 pm 23:52 Clear 75 23.9 65 18.3 71 71 Calm 30.09 1019 10 16 0.00 0.00

Powered by AerisWeather